Location: Camps Bay
(33.9517°S, 18.3844°E)
Time: 21:42:55
(UTC+00:00)

Cosmos 1980 Rocket - Pass Details

Date: 18 January 2020
Orbit: 830 x 849 km, 71.0° (Epoch: 16 February)

Event Time Altitude Azimuth Distance (km) Brightness Sun altitude
Rises 01:28:23 0° 189° (S) 3,428 6.0 -24.5°
Reaches altitude 10° 01:31:16 10° 176° (S) 2,490 5.3 -24.1°
Maximum altitude 01:36:01 27° 120° (ESE) 1,604 4.3 -23.5°
Drops below altitude 10° 01:40:45 10° 63° (ENE) 2,476 4.8 -22.8°
Sets 01:43:34 0° 51° (NE) 3,405 5.4 -22.4°
